Weather in Suponevo

Russia / Bryansk Oblast     53°12′29″N   34°19′10″E
temp.,
°C
wind,
m/s
gust,
m/s
humid.,
%
clouds,
%
prec.,
mm/h
press.,
hPa
HPBL,
m
7 march, sun
sun700:00−10wsw49880 0.0 1019184
03:00−9sw613859 0.0 1016340
06:00−7sw7168567 0.0 1013585
09:00−4sw9188283 0.0 1008967
12:00−2wsw111891100 0.3 10041155
15:000wsw111890100 1.2 10011278
18:000wsw111992100 0.4 10001312
21:00−3w51385100 1.3 1002721
8 march, mon
mon800:00−5wsw5128689 0.0 1003293
03:00−5wsw6139176 0.0 1003439
06:00−6w5139351 0.0 1002485
09:00−6w6119127 0.0 1004600
12:00−4wnw578697 0.1 1006862
15:00−3wnw468099 0.3 10071020
18:00−6nw488553 0.1 1008259
21:00−9nw359227 0.1 101194
9 march, tue
tue900:00−7nnw4895100 0.1 1012329
03:00−10nnw489594 0.2 1014244
06:00−12nnw359586 0.0 1016136
09:00−12nnw479163 0.0 1019359
12:00−9nw458087 0.0 1019712
15:00−7nw567578 0.0 1020906
18:00−9nw378499 0.0 1020275
21:00−12nw339161 0.0 102369
10 march, wed
wed1000:00−13wnw22920 0.0 102423
03:00−13sw23935 0.0 102432
06:00−11sw379292 0.0 1024245
09:00−9sw498996 0.1 1024358
12:00−5wsw5886100 0.1 1023665
15:00−3wsw4779100 0.2 1023825
18:00−5wsw2387100 0.0 102391
21:00−11e5994100 0.4 1025308
11 march, thu
thu1100:00−12e4893100 0.2 1027398
03:00−14e499398 0.3 1028346
06:00−16e4892100 0.0 1029310
09:00−16ese488392 0.1 1030275
12:00−12ese478218 0.0 1030412
15:00−10ese47819 0.0 1030445
18:00−12se47880 0.0 1029332
21:00−14se48928 0.0 1030247